Location: Newark
(52.2090°N, 4.1550°W)
Time: 14:27:31
(UTC+00:00)

Explorer 7 - All Passes

Search period start: 20 September 2019 00:00
Search period end: 30 September 2019 00:00
Orbit: 485 x 680 km, 50.3° (Epoch: 19 September)

Date Brightness Start Highest point End Pass type
(mag) Time Alt. Az. Time Alt. Az. Time Alt. Az.
20 Sep - 00:08:28 10° SW 00:12:52 46° SSE 00:17:29 10° E night (unlit)
20 Sep - 01:48:33 10° W 01:53:16 72° S 01:58:09 10° E visible
20 Sep - 03:29:02 10° W 03:33:45 54° SSW 03:38:32 10° ESE visible
20 Sep - 05:10:01 10° W 05:13:46 22° SW 05:17:33 10° SSE visible
20 Sep - 22:34:17 10° SSW 22:37:49 23° SE 22:41:30 10° E night (unlit)
21 Sep - 00:13:17 10° WSW 00:17:48 56° SSE 00:22:32 10° E night (unlit)
21 Sep - 01:53:33 10° W 01:58:16 71° S 02:03:10 10° E visible
21 Sep - 03:34:05 10° W 03:38:40 44° SSW 03:43:20 10° SE visible
21 Sep - 05:15:31 10° W 05:18:30 16° SW 05:21:30 10° S visible
21 Sep - 22:38:41 10° SSW 22:42:36 30° SSE 22:46:44 10° E night (unlit)
22 Sep - 00:18:12 10° WSW 00:22:46 64° SSE 00:27:33 10° E night (unlit)
22 Sep - 01:58:34 10° W 02:03:16 67° S 02:08:08 10° ESE visible
22 Sep - 03:39:10 10° W 03:43:33 35° SSW 03:48:01 10° SE visible
22 Sep - 05:21:49 10° WSW 05:23:11 11° SW 05:24:33 10° SSW visible
22 Sep - 21:06:00 10° SSE 21:07:50 12° SE 21:09:43 10° ESE night (unlit)
22 Sep - 22:43:17 10° SW 22:47:27 39° SSE 22:51:51 10° E night (unlit)
23 Sep - 00:23:10 10° WSW 00:27:45 70° S 00:32:35 10° E night (unlit)
23 Sep - 02:03:35 10° W 02:08:15 59° SSW 02:13:04 10° ESE visible
23 Sep - 03:44:20 10° W 03:48:23 27° SW 03:52:30 10° SSE visible
23 Sep - 21:09:34 10° S 21:12:31 18° SE 21:15:36 10° E night (unlit)
23 Sep - 22:48:02 10° SW 22:52:21 49° SSE 22:56:55 10° E night (unlit)
24 Sep - 00:28:09 10° W 00:32:45 72° S 00:37:36 10° E night (unlit)
24 Sep - 02:08:36 10° W 02:13:12 50° SSW 02:17:56 10° SE visible
24 Sep - 03:49:40 10° W 03:53:10 20° SW 03:56:43 10° S visible
24 Sep - 21:13:45 10° SSW 21:17:16 24° SE 21:20:59 10° E night (unlit)
24 Sep - 22:52:53 10° WSW 22:57:17 58° SSE 23:01:57 10° E night (unlit)
25 Sep - 00:33:09 10° W 00:37:45 70° S 00:42:34 10° ESE night (unlit)
25 Sep - 02:13:40 10° W 02:18:06 41° SSW 02:22:42 10° SE night (unlit)
25 Sep - 03:55:20 10° WSW 03:57:54 14° SW 04:00:29 10° SSW visible
25 Sep - 21:18:12 10° SSW 21:22:05 32° SSE 21:26:11 10° E night (unlit)
25 Sep - 22:57:49 10° WSW 23:02:16 66° S 23:06:59 10° E night (unlit)
26 Sep - 00:38:10 10° W 00:42:45 64° S 00:47:32 10° ESE night (unlit)
26 Sep - 02:18:46 10° W 02:22:59 32° SSW 02:27:18 10° SSE night (unlit)
26 Sep - 19:45:12 10° SSE 19:47:17 13° SE 19:49:25 10° ESE visible
26 Sep - 21:22:51 10° SW 21:26:56 41° SSE 21:31:17 10° E visible
26 Sep - 23:02:47 10° W 23:07:15 70° S 23:11:59 10° E night (unlit)
27 Sep - 00:43:11 10° W 00:47:43 56° SSW 00:52:27 10° ESE night (unlit)
27 Sep - 02:23:59 10° W 02:27:48 24° SW 02:31:42 10° SSE night (unlit)
27 Sep - 19:48:59 10° S 19:51:59 19° SE 19:55:08 10° E visible
27 Sep - 21:27:38 10° SW 21:31:51 51° SSE 21:36:20 10° E visible
27 Sep - 23:07:46 10° W 23:12:15 71° S 23:17:00 10° E night (unlit)
28 Sep - 00:48:13 10° W 00:52:39 46° SSW 00:57:17 10° SE night (unlit)
28 Sep - 02:29:24 10° W 02:32:35 18° SW 02:35:48 10° S night (unlit)
28 Sep - 19:53:14 10° SSW 19:56:45 26° SE 20:00:27 10° E visible
28 Sep - 21:32:31 10° WSW 21:36:48 60° SSE 21:41:22 10° E visible
28 Sep - 23:12:47 10° W 23:17:15 68° S 23:21:59 10° ESE night (unlit)
29 Sep - 00:53:17 10° W 00:57:33 37° SSW 01:01:59 10° SE night (unlit)
29 Sep - 02:35:19 10° WSW 02:37:17 12° SW 02:39:15 10° SSW night (unlit)
29 Sep - 19:57:46 10° SW 20:01:34 34° SSE 20:05:37 10° E visible
29 Sep - 21:37:27 10° WSW 21:41:47 67° S 21:46:23 10° E visible
29 Sep - 23:17:47 10° W 23:22:14 61° SSW 23:26:56 10° ESE night (unlit)
